Погода в Гайвороне

Россия / Приморский край     44°44′52″N   132°46′22″E
темп.,
°C
ветер,
м/с
пор.,
м/с
влажн.,
%
обл.,
%
осадки,
мм/ч
давл.,
гПа
погр.,
м
24 июля, сб
сб2401:00+26юз357361 0.0 100883
04:00+24ююз3579100 0.0 100885
07:00+25ю247590 0.0 1009123
10:00+30юз455374 0.0 1009609
13:00+33зсз445098 0.0 1008930
16:00+34ссз444366 0.0 1006594
19:00+31вюв335277 0.3 100583
22:00+24юз488083 1.1 1008108
25 июля, вс
вс2501:00+22ююз41082100 0.1 1007144
04:00+21ю37795 0.1 100895
07:00+22ю3976100 0.0 1008192
10:00+30ююз69456 0.0 1008754
13:00+34юз673322 0.0 10061447
16:00+36юз783093 0.0 10041677
19:00+33юз793545 0.0 1005943
22:00+26ююз71558100 0.0 1006395
26 июля, пн
пн2601:00+23ююз6137685 0.0 1006336
04:00+22ю5138276 0.0 1006342
07:00+23ю4128023 0.0 1006385
10:00+29ююз695794 0.0 1006744
13:00+34юз563936 0.0 10041436
16:00+34зюз773689 0.0 10031363
19:00+33ююз78398 0.0 1003923
22:00+26ююз61263100 0.0 1004286
27 июля, вт
вт2701:00+23ююз5127996 0.0 1004256
04:00+22ююз4986100 0.0 1004167
07:00+23ююз378097 0.0 1005183
10:00+29юз445843 0.0 1005552
13:00+31сз435213 0.0 1003657
16:00+34сз444029 0.0 1001663
19:00+33сз223796 0.0 1000201
22:00+27вюв114910 0.0 100011
28 июля, ср
ср2801:00+25ссз236417 0.0 100036
04:00+22сз227691 0.0 100127
07:00+23всв127063 0.0 100251
10:00+31с224633 0.0 1001464
13:00+34сз53383 0.0 1000733
16:00+35сз54370 0.0 998644
19:00+35з22321 0.0 997408
22:00+26юз12665 0.0 99937